Regional Weather Roundup
Issued by NWS Charleston, SC

Current Version | Previous Version | Text Only | Print | Product List | Glossary Off
Versions: 1 2 3 4 5 6 7 8 9 10 11 12 13 14 15 16 17 18 19 20 21 22 23 24 25 26 27 28 29 30 31 32 33 34 35 36 37 38 39 40 41 42 43 44 45 46 47 48 49 50

337
ASUS42 KCHS 242027
RWRCHS

REGIONAL WEATHER ROUNDUP
NATIONAL WEATHER SERVICE CHARLESTON SC
400 PM EDT MON JUL 24 2017

NOTE: "FAIR" INDICATES FEW OR NO CLOUDS BELOW 12,000 FEET WITH NO
SIGNIFICANT WEATHER AND/OR OBSTRUCTIONS TO VISIBILITY.

NOT ALL STATIONS ARE QUALITY CONTROLLED. USE DATA WITH CAUTION...
ESPECIALLY DEWPOINT OBSERVATIONS.

SCZ027-030-031-034>040-042>050-242100-
...SOUTHEAST SOUTH CAROLINA...

CITY           SKY/WX    TMP DP  RH WIND       PRES   REMARKS
N CHARLESTON   PTSUNNY   85  75  72 SW13      29.96S HX  93
WATERFRONT PRK   N/A     83  77  81 SW12      29.95F HX  92
JOHNS ISLAND   MOCLDY    86  79  79 S12G18    29.96F HX  99
PINOPOLIS        N/A     88  79  74 CALM      29.88F HX 102
MONCKS CORNER  CLOUDY    84  75  74 S8G18     29.93F HX  92
SUMMERVILLE    FAIR      86  77  74 S5        29.94F HX  97
BEAUFORT MCAS  MOSUNNY   92  77  61 SW10G18   29.95F HX 105
BEAUFORT ARPT  FAIR      86  77  74 S10G16    29.94F HX  97
HILTON HEAD IS MOSUNNY   86  79  79 S12G23    29.97F HX  99
WALTERBORO     CLOUDY    88  77  70 S8        29.93F HX 100
ALLENDALE      NOT AVBL

...SOUTHERN MIDLANDS AND PEE DEE...

CITY           SKY/WX    TMP DP  RH WIND       PRES   REMARKS
GEORGETOWN     MOCLDY    86  77  74 S7        29.95F HX  97
KINGSTREE      MOCLDY    88  77  70 SW5       29.92F HX 100
ORANGEBURG     TSTM      77  70  79 S21G32    29.91F
BARNWELL       TSTM      77  75  94 SW7G18    29.94R VSB 3/4
AIKEN          FAIR      73  72  94 CALM      29.97F
MANNING        FAIR      88  79  74 N10G18    29.91F HX 102
COLUMBIA       TSTM      77  73  87 W14       29.92R FOG
SUMTER         PTSUNNY   89  76  66 W5        29.90F HX  99
FLORENCE       CLOUDY    85  77  77 W6        29.93F HX  95
MYRTLE BEACH   PTSUNNY   86  77  74 S17       29.94F HX  97
N MYRTLE BEACH MOSUNNY   84  77  79 S15       29.93S HX  94

$$

GAZ063-065-086>088-099>101-113>116-118-119-134>141-150-242100-
...SOUTHEAST GEORGIA...

CITY           SKY/WX    TMP DP  RH WIND       PRES   REMARKS
SAVANNAH ARPT  PTSUNNY   93  72  50 VRB5      29.95F HX 101
HUNTER AAF     MOSUNNY   93  74  54 SW9       29.92F HX 102
FORT STEWART   MOSUNNY   92  71  49 SW10      29.93F HX  99
STATESBORO     MOSUNNY   93  73  52 SW8       29.93F HX 101
SYLVANIA       CLEAR     91  77  64 SW7       29.94F HX 104
CLAXTON        FAIR      93  73  52 SW7       29.94F HX 102

...CSRA...CENTRAL AND FAR SOUTHEAST GEORGIA...

CITY           SKY/WX    TMP DP  RH WIND       PRES   REMARKS
THOMSON        CLOUDY    80  76  89 W5        29.99F
AUGUSTA-BUSH   LGT RAIN  78  74  87 SW6       29.92F
AUGUSTA-DANIEL CLOUDY    77  71  82 CALM      29.94F
SWAINSBORO     MOCLDY    90  72  55 SW8       29.95S HX  96
VIDALIA        PTSUNNY   91  73  55 SW3       29.95F HX 100
EASTMAN        FAIR      93  56  29 S9        29.96F HX  91
HAZLEHURST     FAIR      91  75  60 W3        29.94S HX 102
ALMA           PTSUNNY   91  73  55 S6        29.95F HX  99
WAYCROSS       MOSUNNY   92  83  73 SW7       29.96F HX 116
JESUP          NOT AVBL
BAXLEY         PTSUNNY   91  79  66 W7        29.94F HX 107
BRUNSWICK      CLOUDY    82  77  83 S3        29.98F HX  91
SAINT SIMONS   CLOUDY    86  78  77 S10       29.97F HX  98

$$

SCZ027-028-034-036>038-045-046-048>050-GAZ119-141-242100-
...LAKE AND SUPPLEMENTAL COASTAL OBSERVATIONS...

STATION/POSITION TIME  TEMP    WIND        PRES    WAVE   SWELL
                       AIR SEA DIR/SP/G            HT/PER HT/PER/DIR
                 (UTC) (F)     (DEG/KT/KT) (MB)    (FT/S) (FT/S/D)
WINYAH BAY       1945   87     210/ 10     1014.0S
LAKE MURRAY      1920   88      CALM  /  5 1012.2
ACE BASIN NERRS  1930   87     180/  1     1015.0S
FORT PULASKI     2000   86 86  200/ 10/ 16 1014.7
SAPELO ISLAND    2000   87     220/ 12     1015.0

$$

ANZ835-935-AMZ111-154-330-350-352-354-370-450-454-472-242100-
...C-MAN AND BUOY OBSERVATIONS...

STATION/POSITION TIME  TEMP    WIND        PRES    WAVE   SWELL
                       AIR SEA DIR/SP/G            HT/PER HT/PER/DIR
                 (UTC) (F)     (DEG/KT/KT) (MB)    (FT/S) (FT/S/D)
BUOY 41004       2010   82 83  220/ 17/ 19 1014.5
BUOY 41008       1950   81 81  170/ 16/ 17 1014.6F   3/ 9   2/100/ 9
FOLLY BEACH CMAN 2000   83     200/ 17/ 19 1015.2F
CAPERS NEARSHORE 2008   81 84  220/ 16/ 21 1014.4F
FRIPP NEARSHORE  2008   83 85  200/ 16/ 21 1014.2F


STATION/POSITION TIME  TEMP    WIND        PRES    WAVE   SWELL
                       AIR SEA DIR/SP/G            HT/PER HT/PER/DIR
                 (UTC) (F)     (DEG/KT/KT) (MB)    (FT/S) (FT/S/D)
5E ST. MARYS GA  2000      78                N/A     2/ 9
FRYING PAN BUOY  2010   81 82  230/ 16/ 19 1014.0
BUOY 41025       1950   83 84  230/ 21/ 25 1013.0F   7/ 7
CAPE LOOKOUT NC  2000   84     210/ 11/ 15 1012.8F
BUOY 41002       1950   83 83  230/ 16/ 19 1018.1R   5/ 6   2/100/ 9
BUOY 41010       2010   84 85  170/ 12/ 14 1018.0
ST AUGUSTINE FL  2000   87 77  190/ 14/ 17 1016.3F


$$




USA.gov is the U.S. government's official web portal to all federal, state and local government web resources and services.